Home > Weather > Aarau > Past weeks

Flag for Switzerland Past Weather in Aarau, Aargau, Switzerland — Yesterday and Last 2 Weeks

Now
63 °F

Mild.


Feels Like: 63 °F
Forecast: 58 / 73 °F
Wind: 1 mph from North

Location: Wynau

Current Time: Jun 29, 2016 at 4:07:28 AM

Latest Report: Jun 29, 2016 at 3:00 AM


Visibility: N/A

Pressure: 30.01 "Hg

Humidity: 91%

Dew Point: 60 °F

Location of AarauLocation

Past Weather in Aarau — Graph

°F

Aarau Temperature Yesterday

Maximum temperature yesterday: 78 °F (at 4:00 PM)
Minimum temperature yesterday: 53 °F (at 6:00 AM)
Average temperature yesterday: 65 °F

High & Low Weather Summary for the Past Weeks

 TemperatureHumidityPressure
High91 °F (Jun 23, 5:00 PM)100% (Jun 18, 6:00 AM)30.28 "Hg (Jun 18, 6:00 AM)
Low50 °F (Jun 18, 6:00 AM)35% (Jun 24, 2:00 PM)29.57 "Hg (Jun 15, 5:00 PM)
Average63 °F80%30.00 "Hg
* Reported Jun 14 2:00 AM — Jun 29 2:00 AM, Aarau, Weather by CustomWeather, © 2016

Note: Actual official high and low records may vary slightly from our data, if they occured in-between our weather recording intervals... More about our weather records

Advertising

Aarau Weather History for the Previous 24 Hours

Scroll right to see more
 ConditionsComfort  
Time TempWeatherWind HumidityBarometerVisibility
2:00 AM
Wed, Jun 29
62 °FMild.2 mph93%30.01 "HgN/A
1:00 AM62 °FCool.1 mph93%30.00 "HgN/A
12:00 AM63 °FMild.1 mph89%30.00 "HgN/A
11:00 PM
Tue, Jun 28
64 °FMild.2 mph88%29.99 "HgN/A
10:00 PM66 °FMild.1 mph77%29.98 "HgN/A
9:00 PM68 °FMild.1 mph76%29.97 "HgN/A
8:00 PM74 °FMild.5 mph58%29.95 "HgN/A
7:00 PM76 °FMild.6 mph52%29.94 "HgN/A
6:00 PM77 °FMild.3 mph48%29.95 "HgN/A
5:00 PM78 °FWarm.5 mph45%29.95 "HgN/A
4:00 PM78 °FPleasantly warm.5 mph40%29.96 "HgN/A
3:00 PM77 °FPleasantly warm.3 mph40%29.98 "HgN/A
2:00 PM75 °FMild.3 mph42%30.01 "HgN/A
1:00 PM73 °FMild.3 mph48%30.04 "HgN/A
12:00 PM72 °FMild.3 mph47%30.06 "HgN/A
11:00 AM68 °FMild.1 mph57%30.08 "HgN/A
10:00 AM66 °FMild.3 mph68%30.10 "HgN/A
9:00 AM61 °FCool.1 mph78%30.13 "HgN/A
8:00 AM58 °FCool.1 mph84%30.14 "HgN/A
7:00 AM53 °FCool.1 mph96%30.16 "HgN/A
6:00 AM53 °FCool.1 mph97%30.16 "HgN/A
5:00 AM54 °FCool.1 mph96%30.16 "HgN/A
4:00 AM54 °FCool.2 mph95%30.16 "HgN/A
Weather by CustomWeather, © 2016

See weather overviewHow to use our weather pages